�������C�����ː����j�^�v���󋵏��
Date,Time,Cs137(Bq/L),Cs134(Bq/L),�S��(Bq/L)
2018/05/10,00:00,0.072,ND,ND
2018/05/10,00:10,0.077,ND,ND
2018/05/10,00:20,0.070,ND,ND
2018/05/10,00:30,0.062,ND,ND
2018/05/10,00:40,0.050,ND,ND
2018/05/10,00:50,0.050,ND,ND
2018/05/10,01:00,ND,ND,ND
2018/05/10,01:10,ND,ND,ND
2018/05/10,01:20,ND,ND,ND
2018/05/10,01:30,ND,ND,ND
2018/05/10,01:40,ND,ND,ND
2018/05/10,01:50,0.048,ND,ND
2018/05/10,02:00,ND,ND,ND
2018/05/10,02:10,ND,ND,ND
2018/05/10,02:20,0.091,ND,ND
2018/05/10,02:30,0.12,ND,ND
2018/05/10,02:40,0.12,ND,ND
2018/05/10,02:50,0.14,ND,ND
2018/05/10,03:00,0.15,ND,ND
2018/05/10,03:10,0.15,ND,ND
2018/05/10,03:20,0.15,ND,ND
2018/05/10,03:30,0.16,ND,ND
2018/05/10,03:40,0.18,ND,ND
2018/05/10,03:50,0.20,ND,9.2
2018/05/10,04:00,0.21,ND,11
2018/05/10,04:10,0.22,ND,ND
2018/05/10,04:20,0.24,ND,ND
2018/05/10,04:30,0.25,ND,ND
2018/05/10,04:40,0.26,ND,ND
2018/05/10,04:50,0.25,ND,ND
2018/05/10,05:00,0.24,ND,ND
2018/05/10,05:10,0.25,ND,ND
2018/05/10,05:20,0.25,ND,ND
2018/05/10,05:30,0.27,ND,ND
2018/05/10,05:40,0.26,ND,ND
2018/05/10,05:50,0.28,ND,ND
2018/05/10,06:00,0.28,ND,ND
2018/05/10,06:10,0.27,ND,ND
2018/05/10,06:20,0.28,ND,ND
2018/05/10,06:30,0.28,ND,ND
2018/05/10,06:40,0.28,ND,ND
2018/05/10,06:50,0.27,ND,ND
2018/05/10,07:00,0.26,ND,ND
2018/05/10,07:10,0.25,ND,ND
2018/05/10,07:20,0.21,ND,ND
2018/05/10,07:30,0.20,ND,ND
2018/05/10,07:40,0.17,ND,ND
2018/05/10,07:50,0.17,ND,ND
2018/05/10,08:00,0.17,ND,ND
2018/05/10,08:10,0.18,ND,ND
2018/05/10,08:20,0.18,ND,ND
2018/05/10,08:30,0.17,ND,ND
2018/05/10,08:40,0.17,ND,ND
2018/05/10,08:50,0.16,ND,ND
2018/05/10,09:00,0.15,ND,ND
2018/05/10,09:10,0.14,ND,ND
2018/05/10,09:20,0.13,ND,ND
2018/05/10,09:30,0.13,ND,ND
2018/05/10,09:40,0.13,ND,ND
2018/05/10,09:50,0.11,ND,ND
2018/05/10,10:00,0.11,ND,ND
2018/05/10,10:10,0.10,ND,ND
2018/05/10,10:20,0.11,ND,ND
2018/05/10,10:30,0.12,ND,ND
2018/05/10,10:40,0.11,ND,ND
2018/05/10,10:50,0.10,ND,ND
2018/05/10,11:00,0.11,ND,ND
2018/05/10,11:10,0.10,ND,ND
2018/05/10,11:20,0.10,ND,ND
2018/05/10,11:30,0.083,ND,ND
2018/05/10,11:40,0.075,ND,ND
2018/05/10,11:50,0.093,ND,ND
2018/05/10,12:00,0.080,ND,ND
2018/05/10,12:10,0.092,ND,ND
2018/05/10,12:20,0.088,ND,ND
2018/05/10,12:30,0.10,ND,ND
2018/05/10,12:40,0.11,ND,ND
2018/05/10,12:50,0.099,ND,ND
2018/05/10,13:00,0.12,ND,ND
2018/05/10,13:10,0.12,ND,ND
2018/05/10,13:20,0.12,ND,ND
2018/05/10,13:30,0.13,ND,ND
2018/05/10,13:40,0.13,ND,ND
2018/05/10,13:50,0.13,ND,ND
2018/05/10,14:00,0.12,ND,ND
2018/05/10,14:10,0.11,ND,ND
2018/05/10,14:20,0.11,ND,ND
2018/05/10,14:30,0.10,ND,ND
2018/05/10,14:40,0.10,ND,ND
2018/05/10,14:50,0.11,ND,ND
2018/05/10,15:00,0.10,ND,ND
2018/05/10,15:10,0.11,ND,ND
2018/05/10,15:20,0.10,ND,ND
2018/05/10,15:30,0.11,ND,ND
2018/05/10,15:40,0.089,ND,ND
2018/05/10,15:50,0.10,ND,ND
2018/05/10,16:00,0.11,ND,ND
2018/05/10,16:10,0.092,ND,ND
2018/05/10,16:20,0.11,ND,ND
2018/05/10,16:30,0.12,ND,ND
2018/05/10,16:40,0.12,ND,ND
2018/05/10,16:50,0.12,ND,ND
2018/05/10,17:00,0.13,ND,ND
2018/05/10,17:10,0.15,ND,ND
2018/05/10,17:20,0.14,ND,ND
2018/05/10,17:30,0.14,ND,ND
2018/05/10,17:40,0.15,ND,ND
2018/05/10,17:50,0.13,ND,ND
2018/05/10,18:00,0.12,ND,ND
2018/05/10,18:10,0.096,ND,ND
2018/05/10,18:20,0.090,ND,ND
2018/05/10,18:30,0.063,ND,ND
2018/05/10,18:40,0.051,ND,ND
2018/05/10,18:50,0.067,ND,ND
2018/05/10,19:00,0.057,ND,ND
2018/05/10,19:10,0.072,ND,ND
2018/05/10,19:20,0.078,ND,ND
2018/05/10,19:30,0.096,ND,ND
2018/05/10,19:40,0.10,ND,ND
2018/05/10,19:50,0.096,ND,ND
2018/05/10,20:00,0.13,ND,ND
2018/05/10,20:10,0.13,ND,ND
2018/05/10,20:20,0.12,ND,ND
2018/05/10,20:30,0.12,ND,11
2018/05/10,20:40,0.13,ND,9.7
2018/05/10,20:50,0.13,ND,9.3
2018/05/10,21:00,0.099,ND,ND
2018/05/10,21:10,0.089,ND,ND
2018/05/10,21:20,0.089,ND,ND
2018/05/10,21:30,0.089,ND,ND
2018/05/10,21:40,0.089,ND,ND
2018/05/10,21:50,0.092,ND,ND
2018/05/10,22:00,0.094,ND,ND
2018/05/10,22:10,0.11,ND,ND
2018/05/10,22:20,0.12,ND,ND
2018/05/10,22:30,0.13,ND,ND
2018/05/10,22:40,0.15,ND,ND
2018/05/10,22:50,0.14,ND,ND
2018/05/10,23:00,0.15,ND,ND
2018/05/10,23:10,0.16,ND,ND
2018/05/10,23:20,0.16,ND,ND
2018/05/10,23:30,0.16,ND,ND
2018/05/10,23:40,0.18,ND,ND
2018/05/10,23:50,0.18,ND,ND
